{"data":{"norad_id":52587,"intl_designator":"2022-051BD","name":"STARLINK-3867","alt_names":[],"object_type":"PAYLOAD","status":"ACTIVE","operator":null,"country":"US","launch_date":"2022-05-13","launch_site_code":"AFWTR","launch_vehicle":null,"mission":null,"orbit_class":"UNKNOWN","rcs_meters":null,"size_class":null,"mass_kg":null,"dimensions":null,"purposes":["comms"],"wikipedia_slug":null,"has_3d_model":false,"image_url":null,"decayed_at":null,"tle_current":{"epoch":"2026-09-20T03:23:01.186080Z","epoch_age_seconds":94377,"freshness":"FRESH","line1":"1 52587U 22051BD  26263.14098595  .00002779  00000+0  10133-3 0  9992","line2":"2 52587  53.1607 311.5278 0001507  75.1467 284.9702 15.31686735241140","mean_motion":15.31686735,"eccentricity":0.0001507,"inclination_deg":53.1607,"raan_deg":311.5278,"arg_perigee_deg":75.1467,"mean_anomaly_deg":284.9702,"bstar":0.00010133,"rev_number":24114,"period_min":94.014002151687,"perigee_km":469.74740606352,"apogee_km":471.81166950801,"semimajor_km":6848.9165377858,"source":"CELESTRAK","updated_at":"2026-09-20T09:00:40.066931Z"}}}